TimeCDT,TemperatureF,Dew PointF,Humidity,Sea Level PressureIn,VisibilityMPH,Wind Direction,Wind SpeedMPH,Gust SpeedMPH,PrecipitationIn,Events,Conditions,WindDirDegrees,DateUTC
12:53 AM,70.0,64.0,81,29.91,10.0,SE,5.8,-,N/A,,Mostly Cloudy,130,2013-06-05 05:53:00
1:30 AM,69.8,64.4,83,29.96,10.0,ESE,3.5,-,N/A,,Overcast,110,2013-06-05 06:30:00
1:53 AM,70.0,64.0,81,29.90,10.0,East,6.9,-,N/A,,Mostly Cloudy,90,2013-06-05 06:53:00
2:04 AM,69.8,64.4,83,29.91,10.0,East,5.8,-,0.00,Rain,Light Rain,90,2013-06-05 07:04:00
2:22 AM,71.6,64.4,78,29.94,10.0,East,5.8,-,0.00,Thunderstorm,Thunderstorm,100,2013-06-05 07:22:00
2:36 AM,69.8,64.4,83,29.94,10.0,SE,6.9,-,0.00,Thunderstorm,Overcast,130,2013-06-05 07:36:00
2:43 AM,69.8,64.4,83,29.94,10.0,SSE,8.1,-,0.00,Thunderstorm,Overcast,150,2013-06-05 07:43:00
2:53 AM,70.0,64.9,84,29.93,9.0,SW,11.5,-,0.00,Rain-Thunderstorm,Light Thunderstorms and Rain,220,2013-06-05 07:53:00
3:05 AM,66.2,62.6,88,29.94,1.8,West,31.1,40.3,0.15,Rain-Thunderstorm,Heavy Thunderstorms and Rain,270,2013-06-05 08:05:00
3:13 AM,62.6,60.8,94,29.97,1.0,WNW,32.2,43.7,0.33,Rain-Thunderstorm,Heavy Thunderstorms and Rain,300,2013-06-05 08:13:00
3:18 AM,62.6,60.8,94,29.97,1.8,NW,24.2,43.7,0.37,Rain-Thunderstorm,Heavy Thunderstorms and Rain,320,2013-06-05 08:18:00
3:23 AM,64.4,60.8,88,29.96,3.0,NNW,23.0,33.4,0.41,Rain-Thunderstorm,Heavy Thunderstorms and Rain,330,2013-06-05 08:23:00
3:53 AM,64.0,62.1,93,29.93,4.0,NNE,4.6,-,0.54,Rain-Thunderstorm,Heavy Rain,20,2013-06-05 08:53:00
4:19 AM,64.4,62.6,94,29.96,5.0,Variable,4.6,-,0.11,Rain-Thunderstorm,Rain,0,2013-06-05 09:19:00
4:40 AM,64.4,62.6,94,29.94,7.0,NNE,9.2,-,0.17,Rain,Rain,20,2013-06-05 09:40:00
4:53 AM,64.9,63.0,93,29.89,10.0,NE,8.1,-,0.19,Rain,Light Rain,40,2013-06-05 09:53:00
5:05 AM,66.2,62.6,88,29.92,10.0,NE,9.2,-,0.00,Rain,Light Rain,40,2013-06-05 10:05:00
5:23 AM,66.2,62.6,88,29.93,10.0,NE,6.9,-,0.00,Rain,Light Rain,50,2013-06-05 10:23:00
5:53 AM,66.0,63.0,90,29.90,10.0,East,9.2,-,0.00,Rain,Light Rain,80,2013-06-05 10:53:00
6:53 AM,66.0,63.0,90,29.92,10.0,North,10.4,-,0.00,,Overcast,350,2013-06-05 11:53:00
7:53 AM,66.0,63.0,90,29.94,10.0,NNW,11.5,-,N/A,,Overcast,340,2013-06-05 12:53:00
8:23 AM,66.2,62.6,88,29.98,10.0,North,10.4,-,N/A,,Overcast,350,2013-06-05 13:23:00
8:53 AM,66.9,61.0,81,29.97,5.0,North,20.7,26.5,N/A,,Haze,10,2013-06-05 13:53:00
9:40 AM,62.6,55.4,77,30.00,10.0,North,20.7,26.5,N/A,,Overcast,10,2013-06-05 14:40:00
9:53 AM,64.0,55.0,73,29.98,10.0,North,18.4,31.1,N/A,,Overcast,10,2013-06-05 14:53:00
10:15 AM,64.4,55.4,73,30.01,10.0,North,20.7,26.5,N/A,,Mostly Cloudy,10,2013-06-05 15:15:00
10:24 AM,66.2,55.4,68,30.00,10.0,North,23.0,26.5,N/A,,Scattered Clouds,10,2013-06-05 15:24:00
10:53 AM,66.0,55.0,68,29.99,10.0,North,20.7,26.5,N/A,,Mostly Cloudy,10,2013-06-05 15:53:00
11:53 AM,66.0,54.0,65,30.00,10.0,NNE,18.4,-,N/A,,Overcast,20,2013-06-05 16:53:00
12:53 PM,66.9,54.0,63,30.02,10.0,North,12.7,-,N/A,,Overcast,10,2013-06-05 17:53:00
1:53 PM,68.0,55.0,63,30.01,10.0,NNE,13.8,-,N/A,,Overcast,30,2013-06-05 18:53:00
2:53 PM,70.0,55.0,59,30.00,10.0,North,13.8,18.4,N/A,,Overcast,360,2013-06-05 19:53:00
3:00 PM,69.8,55.4,60,30.02,10.0,North,12.7,-,N/A,,Overcast,10,2013-06-05 20:00:00
3:53 PM,70.0,54.0,57,30.01,10.0,North,11.5,-,N/A,,Overcast,360,2013-06-05 20:53:00
4:53 PM,71.1,55.0,57,30.00,10.0,North,9.2,-,N/A,,Overcast,350,2013-06-05 21:53:00
5:53 PM,70.0,57.0,63,30.00,10.0,NNW,13.8,-,N/A,,Overcast,340,2013-06-05 22:53:00
6:53 PM,71.1,55.9,59,29.97,10.0,NNW,9.2,-,0.00,,Scattered Clouds,330,2013-06-05 23:53:00
7:53 PM,64.9,55.9,73,29.99,10.0,NW,8.1,-,0.00,Rain,Light Rain,310,2013-06-06 00:53:00
8:53 PM,63.0,57.0,81,30.01,10.0,NW,11.5,-,0.00,,Mostly Cloudy,310,2013-06-06 01:53:00
9:53 PM,62.1,55.9,80,30.03,10.0,WNW,8.1,-,N/A,,Mostly Cloudy,290,2013-06-06 02:53:00
10:53 PM,60.1,55.0,83,30.03,10.0,NW,4.6,-,N/A,,Scattered Clouds,310,2013-06-06 03:53:00
11:53 PM,62.1,55.9,80,30.04,10.0,WNW,5.8,-,N/A,,Overcast,290,2013-06-06 04:53:00